Tracking 27188 objects as of 1-Apr-2023
HD Live streaming from Space Station
objects crossing your sky now

STARLINK-3680

Track STARLINK-3680 now!
10-day predictions
STARLINK-3680 is classified as:


NORAD ID: 51969
Int'l Code: 2022-025P
Perigee: 547.6 km
Apogee: 551.2 km
Inclination: 53.1 °
Period: 95.5 minutes
Semi major axis: 6920 km
RCS: Unknown
Launch date: March 9, 2022
Source: United States (US)
Launch site: AIR FORCE EASTERN TEST RANGE (AFETR)
Your satellite tracking list
Your tracking list is empty




NASA's NSSDC Master Catalog

Two Line Element Set (TLE):
1 51969U 22025P   23091.26600966  .00017125  00000-0  11159-2 0  9996
2 51969  53.1183 167.9094 0002609  88.9587 271.1702 15.08020404 60258
Source of the keplerian elements: AFSPC